Home > Weather > Bad Nauheim > Past weeks

Flag for Germany Weather for the Past 2 Weeks in Bad Nauheim, Hesse, Germany

Now
45 °F

Light rain. Passing clouds.


Feels Like: 38 °F
Forecast: 32 / 40 °F
Wind: 13 mph from Southwest

Location: Frankfurt-M-Flughafen Airport

Current Time: Feb 14, 2016 at 5:32:51 AM

Latest Report: Feb 14, 2016 at 4:50 AM


Visibility: N/A

Pressure: 29.03 "Hg

Humidity: 93%

Dew point: 43 °F

Location of Bad NauheimLocation

Historic Weather in Bad Nauheim — Graph

°F

Bad Nauheim Temperature Yesterday

Maximum temperature yesterday: 41 °F (at 11:50 PM)
Minimum temperature yesterday: 30 °F (at 4:20 AM)
Average temperature yesterday: 36 °F

High & Low Weather Summary for the Past Weeks

 TemperatureHumidityPressure
High57 °F (Feb 1, 3:50 AM)100% (Jan 31, 7:50 PM)30.33 "Hg (Jan 31, 7:50 PM)
Low30 °F (Feb 12, 6:20 AM)59% (Feb 6, 3:20 PM)29.00 "Hg (Feb 13, 11:50 PM)
Average43 °F81%29.79 "Hg
* Reported Jan 30 4:20 AM — Feb 14 4:20 AM, Bad Nauheim, Weather by CustomWeather, © 2016

Note: Actual official high and low records may vary slightly from our data, if they occured in-between our weather recording intervals... More about our weather records

Advertising

Bad Nauheim Weather History for the Previous 24 Hours

 ConditionsComfort  
Time TempWeatherWind HumidityBarometerVisibility
4:20 AM
Sun, Feb 14
45 °FLight rain. Passing clouds.12 mph93%29.03 "HgN/A
3:50 AM45 °FLight rain. Passing clouds.10 mph93%29.03 "HgN/A
3:20 AM45 °FLight rain. Passing clouds.9 mph93%29.03 "Hg4 mi
2:20 AM45 °FLight rain. Partly cloudy.13 mph93%29.03 "HgN/A
1:50 AM45 °FLight rain. Passing clouds.15 mph93%29.00 "HgN/A
1:20 AM45 °FLight rain. Partly cloudy.12 mph93%29.00 "HgN/A
12:50 AM45 °FLight rain. Partly cloudy.12 mph93%29.00 "HgN/A
12:20 AM45 °FLight rain. Partly cloudy.13 mph93%29.00 "HgN/A
11:50 PM
Sat, Feb 13
41 °FLight rain. Passing clouds.7 mph93%29.00 "HgN/A
11:20 PM39 °FLight rain. Partly cloudy.5 mph100%29.03 "Hg3 mi
10:50 PM39 °FRain showers. Partly cloudy.6 mph93%29.03 "Hg2 mi
9:50 PM39 °FLight rain. Partly cloudy.6 mph100%29.06 "Hg3 mi
9:20 PM39 °FLight rain. Passing clouds.5 mph93%29.06 "Hg4 mi
8:50 PM39 °FLight rain. Passing clouds.6 mph93%29.06 "Hg4 mi
8:20 PM39 °FLight rain. Passing clouds.9 mph93%29.09 "Hg3 mi
7:50 PM39 °FLight rain. Passing clouds.10 mph93%29.09 "Hg4 mi
7:20 PM39 °FLight rain. Partly cloudy.10 mph93%29.09 "Hg3 mi
6:50 PM39 °FPartly cloudy.10 mph93%29.12 "Hg4 mi
6:20 PM39 °FLight rain. Partly cloudy.9 mph93%29.12 "Hg4 mi
5:50 PM39 °FLight rain. Partly cloudy.10 mph93%29.12 "Hg4 mi
5:20 PM39 °FLight rain. Broken clouds.9 mph93%29.15 "Hg3 mi
4:50 PM39 °FLight rain. Partly sunny.10 mph87%29.15 "Hg4 mi
4:20 PM37 °FLight rain. Partly sunny.10 mph93%29.15 "Hg4 mi
3:50 PM39 °FLight rain. Broken clouds.10 mph93%29.18 "Hg4 mi
3:20 PM37 °FDrizzle. Partly sunny.9 mph93%29.18 "Hg3 mi
2:50 PM37 °FDrizzle. Broken clouds.8 mph93%29.21 "Hg3 mi
2:20 PM37 °FLight rain. Broken clouds.7 mph93%29.21 "Hg3 mi
1:50 PM37 °FLight rain. Partly sunny.7 mph87%29.24 "HgN/A
1:20 PM37 °FOvercast.6 mph81%29.24 "HgN/A
12:50 PM36 °FOvercast.6 mph87%29.27 "HgN/A
12:20 PM36 °FOvercast.6 mph87%29.30 "HgN/A
11:50 AM36 °FBroken clouds.6 mph81%29.30 "HgN/A
11:20 AM36 °FLight snow. Partly sunny.6 mph87%29.30 "HgN/A
10:50 AM34 °FLight snow. Partly sunny.5 mph87%29.33 "HgN/A
10:20 AM34 °FLight rain. Overcast.5 mph87%29.33 "HgN/A
9:50 AM34 °FOvercast.5 mph87%29.33 "HgN/A
9:20 AM34 °FBroken clouds.5 mph81%29.36 "HgN/A
8:50 AM32 °FPartly sunny.6 mph93%29.36 "HgN/A
8:20 AM32 °FSunny.6 mph87%29.36 "Hg10 mi
7:50 AM32 °FSunny.8 mph87%29.36 "Hg10 mi
7:20 AM32 °FClear.6 mph87%29.36 "Hg10 mi
6:50 AM32 °FClear.3 mph87%29.36 "Hg10 mi
6:20 AM30 °FPassing clouds.3 mph86%29.36 "HgN/A
5:50 AM32 °FPassing clouds.6 mph87%29.36 "HgN/A
5:20 AM30 °FPassing clouds.3 mph86%29.36 "HgN/A
Weather by CustomWeather, © 2016

See weather overviewHow to use our weather pages